Powrót do katalogu

YOUXI

AktywnyNaukaSSO
NORAD 69097·PAYLOAD·🇨🇳 China
Ta nazwa satelity nie została jeszcze potwierdzona przez oficjalne źródła.

Wystrzelony May 15, 2026 z Jiuquan Satellite Launch Center

Loading…

Następne Przeloty (najbliższe 24 godziny)

TLE

ŚwieżeSource: Space-Track

Epoka: Sep 14, 2026, 13:46 UTC

1 69097U 26106A   26257.57412583  .00005601  00000-0  32912-3 0  9995
2 69097  97.5046 338.0876 0013098 211.7551 148.2891 15.12022416 18480

Śledź YOUXI w czasie rzeczywistym z AllMySat

Download on the App Store